EHI
0 0 0 0 0 0 0 0 0 0 0 0 0 0 0 0 0 0 0 0 0 0 0 0 0 0 0 0 0 0 0 0 0 0 0 0 0 0 0 0 0 0 0
0 0 0 0 0 0 0 0 0 0 0 0 0 0 0 0 0 0 0 0 0 0 0 0 0 0 0 0 0 0 0 0 0 0 0 0 0 0 0 0 0 0 0
0 0 0 0 0 0 0 0 0 0 0 0 0 0 0 0 0 0 0 0 0 0 0 0 0 0 0 0 0 0 0 0 0 0 0 0 0 0 0 0 0 0 0
0 0 0 0 0 0 0 0 0 0 0 0 0 0 0 0 0 0 0 0 0 0 0 0 0 0 0 0 0 0 0 0 0 0 0 0 0 0 0 0 0 0 0
0 0 0 0 0 0 0 0 0 0 0 0 0 0 0 0 0 0 0 0 0 0 0 0 0 0 0 0 0 0 0 0 0 0 0 0 0 0 0 0 0 0 0
0 0 0 0 0 0 0 0 0 0 0 0 0 0 0 0 0 0 0 0 0 0 0 0 0 0 0 0 0 0 0 0 0 0 0 0 0 0 0 0 0 0 0
0 0 0 0 0 0 0 0 0 0 0 0 0 0 0 0 0 0 0 0 0 0 0 0 0 0 0 0 0 0 0 0 0 0 0 0 0 0 0 0 0 0 0
0 0 0 0 0 0 0 0 0 0 0 0 0 0 0 0 0 0 0 0 0 0 0 0 0 0 0 0 0 0 0 0 0 0 0 0 0 0 0 0 0 0 0
0 0 0 0 0 0 0 0 0 0 0 0 0 0 0 0 0 0 0 0 0 0 0 0 0 0 0 0 0 0 0 0 0 0 0 0 0 0 0 0 0 0 0
0 0 0 0 0 0 0 0 0 0 0 0 0 0 0 0 0 0 0 0 0 0 0 0 0 0 0 0 0 0 0 0 0 0 0 0 0 0 0 0 0 0 0
0 0 0 0 0 0 0 0 0 0 0 0 0 0 0 0 0 0 0 0 0 0 0 0 0 0 0 0 0 0 0 0 0 0 0 0 0 0 0 0 0 0 0
0 0 0 0 0 0 0 0 0 0 0 0 0 0 0 0 0 0 0 0 0 0 0 0 0 0 0 0 0 0 0 0 0 0 0 0 0 0 0 0 0 0 0
0 0 0 0 0 0 0 0 0 0 0 0 0 0 0 0 0 0 0 0 0 0 0 0 0 0 0 0 0 0 0 0 0 0 0 0 0 0 0 0 0 0 0
0 0 0 0 0 0 0 0 0 0 0 0 0 0 0 0 0 0 0 0 0 0 0 0 0 0 0 0 0 0 0 0 0 0 0 0 0 0 0 0 0 0 0
0 0 0 0 0 0 0 0 0 0 0 0 0 0 0 0 0 0 0 0 0 0 0 0 0 0 0 0 0 0 0 0 0 0 0 0 0 0 0 0 0 0 0
0 0 0 0 0 0 0 0 0 0 0 0 0 0 0 0 0 0 0 0 0 0 0 0 0 0 0 0 0 0 0 0 0 0 0 0 0 0 0 0 0 0 0
0 0 0 0 0 0 0 0 0 0 0 0 0 0 0 0 0 0 0 0 0 0 0 0 0 0 0 0 0 0 0 0 0 0 0 0 0 0 0 0 0 0 0
0 0 0 0 0 0 0 0 0 0 0 0 0 0 0 0 0 0 0 0 0 0 0 0 0 0 0 0 0 0 0 0 0 0 0 0 0 0 0 0 0 0 0
0 0 0 0 0 0 0 0 0 0 0 0 0 0 0 0 0 0 0 0 0 0 0 0 0 0 0 0 0 0 0 0 0 0 0 0 0 0 0 0 0 0 0
0 0 0 0 0 0 0 0 0 0 0 0 0 0 0 0 0 0 0 0 0 0 0 0 0 0 0 0 0 0 0 0 0 0 0 0 0 0 0 0 0 0 0
0 0 0 0 0 0 0 0 0 0 0 0 0 0 0 0 0 0 0 0 0 0 0 0 0 0 0 0 0 0 0 0 0 0 0 0 0 0 0 0 0 0 0
0 0 0 0 0 0 0 0 0 0 0 0 0 0 0 0 0 0 0 0 0 0 0 0 0 0 0 0 0 0 0 0 0 0 0 0 0 0 0 0 0 0 0
0 0 0 0 0 0 0 0 0 0 0 0 0 0 0 0 0 0 0 0 0 0 0 0 0 0 0 0 0 0 0 0 0 0 0 0 0 0 0 0 0 0 0
0 0 0 0 0 0 0 0 0 0 0 0 0 0 0 0 0 0 0 0 0 0 0 0 0 0 0 0 0 0 0 0 0 0 0 0 0 0 0 0 0 0 0
0 0 0 0 0 0 0 0 0 0 0 0 0 0 0 0 0 0 0 0 0 0 0 0 0 0 0 0 0 0 0 0 0 0 0 0 0 0 0 0 0 0 0
0 0 0 0 0 0 0 0 0 0 0 0 0 0 0 0 0 0 0 0 0 0 0 0 0 0 0 0 0 0 0 0 0 0 0 0 0 0 0 0 0 0 0
Wind_Speed
3 3 3 3 3 3 2 2 2 2 1 2 1 1 1 1 1 1 1 2 2 2 2 3 3 4 3 3 3 3 4 5 8 8 7 7 9 9 8 8 8 9 8
3 3 3 3 3 3 3 3 3 3 2 2 2 1 1 1 1 2 2 2 2 3 3 3 4 3 4 4 4 4 5 5 7 9 8 8 9 9 9 9 8 8 8
3 3 3 3 3 3 3 3 3 3 2 2 2 2 2 2 2 2 3 3 3 4 4 4 5 4 5 4 5 5 5 5 6 7 9 7 7 7 9 9 9 8 8
3 3 3 3 3 3 3 3 3 3 3 2 3 3 3 3 3 3 3 3 4 4 4 5 5 5 6 6 5 6 5 6 6 7 8 8 7 8 8 8 8 7 8
3 3 4 3 3 3 3 3 2 2 3 3 3 3 3 3 3 3 3 4 4 5 5 5 5 6 7 6 5 5 6 5 6 6 7 8 7 7 7 7 9 8 8
3 3 3 3 3 3 3 2 2 3 3 3 3 4 4 3 3 4 4 4 5 5 5 5 5 5 6 7 8 8 8 7 8 7 7 8 10 9 8 8 8 9 8
3 3 3 3 3 3 3 2 2 3 3 3 3 4 4 4 4 5 6 5 5 5 6 5 5 4 5 6 7 8 8 9 10 9 10 10 10 9 9 10 9 9 10
3 3 3 3 3 3 3 3 3 3 3 3 4 4 4 4 5 6 6 6 6 6 6 6 6 6 5 6 6 7 8 8 9 8 9 10 10 10 9 10 10 11 10
3 3 3 3 3 3 3 4 3 3 3 4 4 4 4 5 4 5 5 4 5 6 6 6 6 6 7 7 7 8 9 8 8 10 12 13 14 14 11 8 8 7 8
4 3 3 3 3 3 4 4 3 3 3 3 3 4 5 5 5 5 5 3 4 5 5 5 6 7 8 9 7 8 9 9 8 8 9 10 10 10 10 8 7 7 7
2 2 2 3 3 3 3 2 2 2 2 3 4 4 4 5 6 6 6 4 4 5 5 5 5 8 10 11 9 7 9 9 8 8 7 7 7 6 6 6 6 6 7
2 2 2 2 3 2 2 2 2 2 3 3 3 4 4 4 5 6 7 7 6 5 5 5 5 8 10 10 8 8 10 8 5 6 6 6 6 6 6 6 7 8 8
2 2 2 2 2 2 2 2 2 2 3 3 3 4 4 3 4 6 7 8 8 6 5 7 8 8 9 7 8 9 7 5 5 6 6 6 6 6 6 6 6 7 8
3 3 2 2 2 2 2 3 3 3 3 3 3 4 4 4 3 3 3 4 6 6 5 5 8 9 8 7 5 5 4 5 6 6 7 6 6 6 5 5 5 6 6
3 3 3 3 3 3 3 3 4 4 4 4 4 4 4 5 5 6 4 4 4 4 4 4 4 4 5 5 5 4 5 5 5 6 6 6 6 6 6 5 5 6 6
3 3 3 3 3 3 3 3 5 6 6 7 7 6 5 6 7 7 7 7 6 5 4 4 5 5 6 6 6 6 5 5 6 6 6 6 6 6 6 6 5 6 7
5 4 3 3 3 3 3 3 4 4 6 7 8 9 8 8 8 7 7 7 6 5 4 5 5 6 6 6 6 6 6 6 5 6 6 6 6 6 6 6 6 6 7
5 4 4 3 3 3 4 4 4 4 4 4 5 8 8 9 9 8 7 5 4 4 5 6 6 6 6 6 6 6 6 5 5 6 6 6 6 6 6 7 7 7 8
4 4 3 3 3 3 3 3 4 4 4 4 4 4 5 7 8 7 5 4 5 5 5 6 6 6 6 6 6 6 6 6 6 6 6 6 6 6 7 7 7 9 8
4 4 3 3 3 3 3 4 4 4 4 5 5 4 3 3 4 4 4 5 5 6 6 6 6 6 6 6 6 6 6 6 6 6 6 6 6 6 8 9 8 8 7
3 3 4 3 3 4 4 4 4 4 5 5 5 5 6 4 5 6 5 6 6 6 6 7 7 6 6 5 5 6 7 6 6 6 6 6 6 6 7 7 8 7 7
3 3 4 4 4 4 4 4 4 5 6 6 5 5 7 5 5 6 6 6 6 6 6 6 6 6 6 6 6 6 7 7 7 6 6 6 6 6 6 6 7 7 6
4 4 4 4 4 4 5 5 5 5 5 6 5 5 5 5 6 6 6 6 6 6 5 6 6 6 6 6 6 6 7 7 7 7 7 7 6 6 6 7 8 8 7
4 4 4 4 4 4 5 5 5 5 6 6 5 5 5 6 6 7 6 6 6 6 6 6 7 8 10 7 6 6 7 8 8 7 9 8 7 6 6 6 7 8 7
4 4 4 4 5 5 5 5 5 6 6 6 6 6 6 6 6 6 6 6 6 7 7 7 6 7 9 10 9 8 9 10 9 6 6 6 7 7 7 7 6 7 7
4 4 4 4 5 5 5 5 6 6 6 6 6 6 6 6 6 6 6 5 6 6 7 6 8 9 10 9 10 11 10 10 8 8 6 5 6 6 6 6 7 7 6
Wind_Direction
247 240 232 238 246 246 243 246 242 236 234 237 237 242 252 266 280 277 277 280 281 288 289 287 289 291 290 290 286 280 275 272 276 288 293 298 296 297 298 297 296 295 293
243 237 233 238 241 241 240 241 238 233 228 235 234 236 247 260 264 258 263 270 274 279 283 286 287 289 287 287 284 280 278 276 277 287 294 297 297 298 299 297 296 294 291
232 229 234 237 240 244 243 240 237 237 236 234 232 234 239 242 246 252 259 266 270 275 278 278 280 283 283 283 283 280 280 280 278 281 290 294 295 297 299 295 294 292 290
223 223 233 240 242 249 252 245 240 241 239 237 238 240 241 241 244 250 258 266 273 277 278 276 278 276 277 281 280 280 284 285 283 282 287 294 295 299 297 298 297 296 293
219 224 236 244 247 246 249 248 240 239 240 239 242 247 248 247 249 256 262 267 272 274 275 276 277 278 279 281 281 284 285 284 286 286 289 294 296 300 298 299 294 297 292
220 231 238 237 238 240 246 245 241 242 244 240 241 245 248 246 257 261 267 266 265 267 273 276 277 272 277 278 281 285 286 283 284 285 288 289 293 295 296 294 296 298 294
225 233 232 232 237 242 245 241 245 246 243 244 253 254 254 255 260 263 263 265 267 267 271 275 276 278 278 280 283 282 281 278 276 279 283 284 291 296 297 292 288 288 286
228 233 233 235 239 245 246 245 250 249 246 249 252 256 263 268 266 267 271 261 267 269 270 273 275 280 279 285 289 288 286 284 281 277 278 283 290 294 290 287 287 286 283
235 240 238 233 236 238 245 250 249 248 249 253 259 261 263 269 273 275 277 267 266 271 272 273 274 277 284 289 288 287 288 289 289 284 285 288 292 292 292 290 288 288 287
241 241 236 230 231 236 244 252 254 251 256 264 265 264 266 273 280 278 275 266 272 278 278 276 272 275 285 288 281 281 282 287 293 294 289 289 289 288 288 282 281 280 284
240 233 234 237 239 242 246 247 251 253 263 267 271 276 275 276 281 278 276 267 269 275 277 278 276 278 282 286 284 278 280 291 290 288 287 287 287 286 285 283 280 274 274
212 217 229 238 242 241 243 251 251 248 251 263 274 282 279 280 280 284 283 274 277 272 272 276 280 286 288 288 286 286 292 293 284 284 284 286 289 291 293 291 284 275 270
200 219 231 235 238 237 234 239 243 245 250 259 266 277 284 285 282 280 279 279 275 273 277 283 287 289 290 284 282 288 287 278 277 278 281 286 291 293 295 293 290 284 280
212 224 224 226 235 233 237 236 239 240 247 255 261 270 280 285 283 284 281 281 277 276 282 286 288 287 282 283 286 280 272 271 273 275 281 285 290 292 291 294 293 297 292
222 225 224 226 233 237 239 243 245 248 251 256 258 261 268 273 278 283 286 283 283 282 293 285 282 283 280 278 278 275 273 269 269 273 277 282 286 287 289 292 288 288 284
223 227 225 226 229 236 246 264 261 263 276 273 275 278 276 281 297 287 280 282 285 290 286 274 274 275 275 277 278 278 274 271 272 273 273 276 280 284 288 289 284 282 284
223 225 224 223 227 234 241 252 271 272 263 266 269 273 275 284 288 288 288 286 279 277 264 268 271 273 274 275 274 273 274 275 275 271 271 273 276 279 282 284 284 283 284
224 224 226 228 230 233 237 244 252 262 272 272 267 265 272 277 280 285 290 289 272 264 262 265 269 271 272 272 272 274 276 276 271 273 273 272 272 275 276 277 278 280 284
219 223 223 228 230 234 238 242 246 250 257 269 279 272 268 275 278 279 277 257 261 263 263 265 268 271 271 273 273 272 272 273 273 272 271 270 269 270 272 273 274 278 277
222 227 221 224 226 229 232 236 241 245 250 256 261 270 279 278 271 271 259 256 259 263 265 266 267 269 269 268 271 270 270 271 272 270 271 271 268 266 269 272 272 274 275
217 217 213 221 227 228 230 234 237 241 245 252 258 261 266 261 260 264 263 260 261 264 267 269 269 269 268 266 267 268 269 270 269 269 269 271 272 271 272 273 275 272 274
210 213 213 221 226 228 233 236 239 243 248 254 263 264 260 257 257 259 260 263 264 265 266 268 268 267 267 266 266 266 265 267 267 267 268 268 268 270 272 273 278 279 275
210 215 219 223 227 232 235 238 240 244 249 253 256 259 256 255 259 261 264 267 270 271 271 269 269 271 271 267 265 262 262 264 265 265 266 267 265 267 270 272 275 280 278
214 219 224 227 227 230 236 241 243 246 249 252 253 254 255 258 262 266 269 271 272 271 271 269 268 272 275 277 272 268 266 266 266 260 256 258 262 265 268 273 275 276 277
217 222 227 231 233 236 240 244 247 249 251 251 253 255 258 260 263 266 269 270 272 273 275 277 274 274 273 275 276 275 275 277 275 267 256 253 257 262 266 270 274 278 277
225 229 232 234 236 237 240 244 248 250 252 254 255 257 260 261 264 267 270 270 274 276 278 277 276 279 282 280 276 278 280 281 276 270 264 256 257 261 267 269 277 283 279